OSCAR 7 (AO-7) 1 07530U 74089B 25353.91699593 -.00000038 00000+0 55462-4 0 9999 2 07530 101.9963 0.2601 0012385 113.0850 308.4213 12.53694382338055 PHASE 3B (AO-10) 1 14129U 83058B 25353.68399690 -.00000211 00000+0 00000+0 0 9992 2 14129 26.0411 249.9931 6064484 65.5730 344.6844 2.05874384291790 UOSAT 2 (UO-11) 1 14781U 84021B 25354.17971414 .00001176 00000+0 12709-3 0 9995 2 14781 97.7821 317.0929 0009100 61.4487 298.7646 14.90164255230462 LUSAT (LO-19) 1 20442U 90005G 25354.01195304 .00000101 00000+0 52712-4 0 9990 2 20442 98.8956 5.7835 0011819 16.8445 343.3129 14.34047490876715 EYESAT A (AO-27) 1 22825U 93061C 25354.13118060 .00000092 00000+0 52053-4 0 9996 2 22825 98.7136 56.4158 0007321 264.8450 95.1897 14.30879255681396 ITAMSAT (IO-26) 1 22826U 93061D 25354.09370527 .00000106 00000+0 56860-4 0 9996 2 22826 98.7084 56.2782 0007925 246.6090 113.4260 14.31300284681691 RADIO ROSTO (RS-15) 1 23439U 94085A 25354.14140847 .00000018 00000+0 17225-2 0 9992 2 23439 64.8155 232.7807 0149998 37.1176 324.0009 11.27583274275716 JAS-2 (FO-29) 1 24278U 96046B 25354.16671329 -.00000028 00000+0 77014-5 0 9996 2 24278 98.5458 222.3051 0349483 200.6828 157.9868 13.53262945448950 TECHSAT 1B (GO-32) 1 25397U 98043D 25353.94205529 .00000046 00000+0 40104-4 0 9996 2 25397 98.9926 337.3205 0001832 45.9373 314.1956 14.24378966425818 ISS (ZARYA) 1 25544U 98067A 25354.21533065 .00006989 00000+0 13177-3 0 9997 2 25544 51.6321 105.4589 0003198 275.1086 84.9538 15.49679666544012 PCSAT (NO-44) 1 26931U 01043C 25354.14032425 .00000112 00000+0 72918-4 0 9993 2 26931 67.0515 347.3398 0007419 269.5030 90.5222 14.31858652264814 SAUDISAT 1C (SO-50) 1 27607U 02058C 25354.22622647 .00001471 00000+0 19340-3 0 9999 2 27607 64.5532 322.4593 0072555 295.1671 64.1922 14.82419820237928 CUTE-1 (CO-55) 1 27844U 03031E 25354.24784514 .00000277 00000+0 13915-3 0 9993 2 27844 98.6762 0.0540 0009386 351.8021 8.3003 14.24185337166207 CUBESAT XI-IV (CO-57) 1 27848U 03031J 25354.00714157 .00000221 00000+0 11643-3 0 9992 2 27848 98.6790 359.6726 0009639 10.5697 349.5682 14.23492293165887 MOZHAETS 4 (RS-22) 1 27939U 03042A 25354.32924948 .00000559 00000+0 95351-4 0 9994 2 27939 98.3359 168.7304 0012348 113.3677 6.0281 14.72988333189210 CUBESAT XI-V 1 28895U 05043F 25353.85140235 .00001218 00000+0 20242-3 0 9994 2 28895 98.2729 141.0496 0015167 57.1012 303.1651 14.71924223 75367 CUTE-1.7+APD II (CO-65) 1 32785U 08021C 25351.68477250 .00005656 00000+0 38073-3 0 9996 2 32785 97.8081 324.8433 0007829 290.5969 69.4418 15.07103756957832 SEEDS II (CO-66) 1 32791U 08021J 25353.46349815 .00012670 00000+0 50331-3 0 9991 2 32791 97.7441 338.8410 0002130 175.3833 184.7424 15.25467941959826 YUBILEINY (RS-30) 1 32953U 08025A 25354.27555995 .00000030 00000+0 14513-3 0 9992 2 32953 82.5028 106.7364 0018732 344.3499 15.7000 12.43172174797461 KKS-1 (KISEKI) 1 33499U 09002H 25354.16673954 .00001236 00000+0 16098-3 0 9997 2 33499 98.1184 268.8714 0008632 141.8867 218.2957 14.82458063909666 SWISSCUBE 1 35932U 09051B 25354.23096662 .00000951 00000+0 19964-3 0 9996 2 35932 98.4147 253.9460 0007961 54.4223 305.7718 14.61977298863001 BEESAT-1 1 35933U 09051C 25354.01439775 .00000767 00000+0 16538-3 0 9998 2 35933 98.4077 253.7230 0006508 67.7195 292.4694 14.61294094863010 ITUPSAT1 1 35935U 09051E 25353.98720299 .00000696 00000+0 15508-3 0 9996 2 35935 98.4167 253.0673 0008753 75.7401 284.4770 14.60047865862587 XIWANG-1 (HOPE-1) 1 36122U 09072B 25354.26558941 -.00000315 00000+0 -70973-3 0 9990 2 36122 100.3779 306.1645 0006983 284.8025 75.2314 13.16431900769465 O/OREOS (USA 219) 1 37224U 10062C 25353.79733676 .00001980 00000+0 19749-3 0 9993 2 37224 71.9703 126.4005 0013495 41.7773 318.4424 14.92712411 89865 JUGNU 1 37839U 11058B 25354.17052898 .00000413 00000+0 76002-4 0 9990 2 37839 19.9622 315.9655 0018384 259.0452 208.1635 14.13699442733669 SRMSAT 1 37841U 11058D 25354.22426193 .00000391 00000+0 68548-4 0 9993 2 37841 19.9724 62.6529 0011942 35.7334 353.2285 14.11513872732507 STRAND-1 1 39090U 13009E 25354.05030315 .00000256 00000+0 10057-3 0 9998 2 39090 98.3821 173.7544 0009526 51.1434 309.0601 14.37010833671334 ZACUBE-1 (TSHEPISOSAT) 1 39417U 13066B 25351.39749824 .00003280 00000+0 27002-3 0 9998 2 39417 97.8056 307.9496 0042001 132.1904 228.2897 14.99124350653477 GOMX-1 1 39430U 13066Q 25354.26002012 .00001544 00000+0 24209-3 0 9990 2 39430 97.6582 200.9149 0129200 292.2977 66.4573 14.68618146643644 CUBEBUG-2 (LO-74) 1 39440U 13066AA 25351.56788106 .00003439 00000+0 33426-3 0 9992 2 39440 97.8708 295.2332 0058016 269.4523 90.0047 14.92015584649893 FUNCUBE-1 (AO-73) 1 39444U 13066AE 25353.89718991 .00005414 00000+0 36826-3 0 9991 2 39444 97.8076 317.2636 0041167 92.5233 268.0707 15.06065869652643 UWE-3 1 39446U 13066AG 25353.84861621 .00002262 00000+0 20652-3 0 9995 2 39446 97.8486 304.2036 0050059 195.5950 164.3731 14.95156504650760 UNISAT-6 1 40012U 14033C 25354.21651547 .00002247 00000+0 25352-3 0 9992 2 40012 97.7620 145.5034 0045183 298.9988 60.6703 14.86846800619559 DUCHIFAT-1 1 40021U 14033M 25354.04866978 .00025570 00000+0 61810-3 0 9992 2 40021 98.0771 26.6287 0006833 11.2579 348.8817 15.41124777627976 QB50P1 1 40025U 14033R 25353.95347395 .00006335 00000+0 34683-3 0 9998 2 40025 98.0962 348.0070 0010975 113.4760 246.7625 15.14576749625861 LILACSAT-2 1 40908U 15049K 25354.31475543 .00010890 00000+0 23313-3 0 9993 2 40908 97.4899 19.9308 0008055 168.9438 191.1989 15.44937470568074 FOX-1A (AO-85) 1 40967U 15058D 25354.05886084 .00002865 00000+0 26731-3 0 9995 2 40967 64.7756 115.1471 0134104 127.1822 234.1623 14.89717714 86878 CAS-2T & KS-1Q 1 41847U 16066G 25354.17497034 .00000790 00000+0 12170-3 0 9996 2 41847 98.4030 66.8431 0342771 312.5799 44.6930 14.44147170478950 RADFXSAT (FOX-1B) 1 43017U 17073E 25354.13825460 .00006760 00000+0 32051-3 0 9993 2 43017 97.4936 220.1669 0159393 224.8218 134.0047 15.09005085438353 DIWATA-2B 1 43678U 18084H 25354.25951417 .00001945 00000+0 16380-3 0 9991 2 43678 98.1022 178.0243 0007626 27.6757 332.4870 14.99473008389396 ES'HAIL 2 1 43700U 18090A 25354.10253131 .00000168 00000+0 00000+0 0 9990 2 43700 0.0122 48.0623 0000973 242.1069 221.4822 1.00272122 25888 FOX-1CLIFF (AO-95) 1 43770U 18099N 25354.15650998 .00007795 00000+0 34369-3 0 9995 2 43770 97.4667 50.3845 0008230 255.7032 104.3290 15.22040526385949 ITASAT 1 43786U 18099AE 25354.15589214 .00005545 00000+0 29022-3 0 9995 2 43786 97.4314 44.3129 0011928 254.6415 105.3500 15.16173434385756 JY1SAT (JO-97) 1 43803U 18099AX 25354.15516301 .00010368 00000+0 39295-3 0 9994 2 43803 97.4411 51.9483 0006475 174.2396 185.8919 15.27060885386246 UWE-4 1 43880U 18111E 25353.21927691 .00017452 00000+0 52029-3 0 9999 2 43880 97.5865 269.9239 0007271 246.6380 113.4098 15.34706356383078 TIANYAN 01 1 44881U 19093C 25354.24158145 .00001392 00000+0 16475-3 0 9996 2 44881 97.7759 65.7059 0012738 320.8537 39.1757 14.86121796324839 RS-44 & BREEZE-KM R/B 1 44909U 19096E 25354.20678853 .00000019 00000+0 31702-4 0 9995 2 44909 82.5215 98.6473 0217313 202.5924 156.5499 12.79746140279456 SALSAT 1 46495U 20068K 25353.48061531 .00006196 00000+0 24069-3 0 9995 2 46495 97.8779 341.1169 0009485 202.4725 157.6098 15.26432785287916 XW-3 (CAS-9) 1 50466U 21131B 25354.28749933 .00000461 00000+0 15668-3 0 9992 2 50466 98.5057 82.6715 0003059 277.1016 82.9825 14.41121625209346 GREENCUBE (IO-117) 1 53109U 22080E 25353.42421286 -.00000003 00000+0 00000+0 0 9999 2 53109 70.1591 0.7560 0009182 326.1910 33.8164 6.42583210 80513 STRATOSAT-TK 1 (RS52S) 1 57167U 23091B 25354.14243538 .00279364 00000+0 13885-2 0 9997 2 57167 97.5190 67.2511 0005398 300.1321 59.9411 15.81184183138041 UMKA 1 (RS40S) 1 57172U 23091G 25354.18986305 .00004457 00000+0 22042-3 0 9998 2 57172 97.5332 48.6226 0014160 29.2087 330.9936 15.18261351136827 CUBESX-HSE 3 (RS42S) 1 57178U 23091N 25354.28715763 .00008775 00000+0 34380-3 0 9998 2 57178 97.5366 53.0352 0012210 11.2859 348.8651 15.25960637137095 MONITOR-3 (RS58S) 1 57180U 23091Q 25354.29956603 .00007611 00000+0 32063-3 0 9996 2 57180 97.5360 51.7194 0013098 15.5938 344.5699 15.23557654137017 MONITOR-4 (RS57S) 1 57182U 23091S 25354.28867192 .00007154 00000+0 30097-3 0 9998 2 57182 97.5354 51.6697 0013136 16.0953 344.0698 15.23628114137019 MONITOR-2 (RS39S) 1 57184U 23091U 25354.27491064 .00003579 00000+0 18530-3 0 9995 2 57184 97.5358 48.7007 0012218 21.8239 338.3512 15.16807896136814 SVYATOBOR 1 (RS60S) 1 57187U 23091X 25354.24628019 .00006758 00000+0 29079-3 0 9999 2 57187 97.5366 52.2823 0010292 9.2926 350.8499 15.22912514137045 VIZARD-METEO (RS38S) 1 57189U 23091Z 25354.29516793 .00010372 00000+0 36412-3 0 9997 2 57189 97.5358 55.7983 0008089 357.1034 3.0158 15.29575356137280 NANOZOND 1 (RS49S) 1 57190U 23091AA 25354.28198600 .00051990 00000+0 79646-3 0 9998 2 57190 97.5281 64.5263 0004216 329.2552 30.8453 15.54174959137872 POLYTECH-UNIVERSE 3 (R*) 1 57191U 23091AB 25354.25812881 .00003690 00000+0 18968-3 0 9994 2 57191 97.5330 48.1969 0017093 36.0292 324.2090 15.16974174136804 UTMN 2 (RS27S) 1 57203U 23091AP 25354.27723153 .00008713 00000+0 33224-3 0 9996 2 57203 97.5357 54.4346 0008909 1.1891 358.9367 15.26897916137193 KUZGTU 1 (RS47S) 1 57217U 23091AV 25354.27517116 .00007867 00000+0 31716-3 0 9994 2 57217 97.5339 52.2934 0012414 14.0431 346.1149 15.25037216137067 SONATE-2 1 59112U 24043Q 25353.90565057 .00019572 00000+0 40976-3 0 9998 2 59112 97.5336 130.4261 0009281 137.0224 223.1751 15.45441926100080 MESAT1 1 60209U 24125G 25354.10019320 .00021710 00000+0 43416-3 0 9997 2 60209 97.2515 204.4793 0014751 151.1631 209.0437 15.46683716 81745 OOV-CUBE (TUBSAT-30) 1 60240U 24128F 25353.80533252 .00002134 00000+0 17387-3 0 9993 2 60240 61.9943 130.5884 0058301 95.6815 265.0927 15.01649568 79165 COLIBRI-S (RS67S) 1 61746U 24199M 25354.29363588 .00013672 00000+0 34922-3 0 9993 2 61746 97.3253 222.2286 0008985 199.9095 160.1801 15.39551295109812 HORS 3 (RS81S) 1 61753U 24199U 25354.27242017 .00018844 00000+0 42935-3 0 9991 2 61753 97.3224 222.8507 0006919 203.2477 156.8459 15.42956826109867 HORS 4 (RS82S) 1 61754U 24199V 25354.26359708 .00021865 00000+0 46826-3 0 9997 2 61754 97.3205 223.2873 0007020 200.7923 159.3041 15.44767524109895 HORIZON (RS59S) 1 61757U 24199Y 25354.27914532 .00043074 00000+0 65309-3 0 9996 2 61757 97.3212 225.5090 0006395 176.8704 183.2591 15.54487326110030 ARCTICSAT 1 (RS74S) 1 61762U 24199AD 25354.28280280 .00037494 00000+0 60293-3 0 9995 2 61762 97.3221 225.3488 0006688 173.7185 186.4153 15.52884595110024 SIT-2086 1 61764U 24199AF 25354.27534895 .00023134 00000+0 52376-3 0 9999 2 61764 97.3222 223.6083 0007006 192.3522 167.7556 15.43103981106753 MORDOVIA-IOT (RS50S) 1 61765U 24199AG 25354.29412977 .00130600 00000+0 10022-2 0 9996 2 61765 97.3107 228.2534 0005160 140.8918 219.2719 15.71661909107074 RUZAEVKA 390 (RS44S) 1 61766U 24199AH 25354.24367625 .00072307 00000+0 79048-3 0 9994 2 61766 97.3163 227.1167 0005076 155.4347 204.7154 15.63078613106998 HYPERVIEW 1G (RS66S) 1 61772U 24199AP 25354.24052369 .00031858 00000+0 60028-3 0 9991 2 61772 97.3202 223.7723 0008320 203.3321 156.7553 15.48415799106777 ALTAIR (RS65S) 1 61779U 24199AW 25354.24728955 .00007565 00000+0 23976-3 0 9998 2 61779 97.3256 219.9672 0012617 223.8473 136.1768 15.32925037109667 ASRTU-1 (AO-123) 1 61781U 24199AY 25354.24919770 .00007734 00000+0 25141-3 0 9992 2 61781 97.3244 219.6174 0013089 225.4264 134.5910 15.32099301106496 TUSUR GO (RS78S) 1 61782U 24199AZ 25354.28294707 .00044819 00000+0 69506-3 0 9991 2 61782 97.3169 224.5927 0007188 196.4594 163.6427 15.53850304106835 SAMSAT-IONOSPHERE (RS7*) 1 61784U 24199BB 25354.27025866 .00020056 00000+0 45035-3 0 9998 2 61784 97.3218 222.5607 0010135 211.2045 148.8603 15.43349830109849 RTU MIREA 1 (RS51S) 1 61785U 24199BC 25354.28162852 .00022772 00000+0 49089-3 0 9997 2 61785 97.3215 222.8390 0009770 208.5243 151.5473 15.44539612106710 HADES-R 1 62690U 25009CK 25353.50180803 .00139512 00000+0 16338-2 0 9995 2 62690 97.3864 76.3943 0001149 263.7674 96.3452 15.61075237 51837 TEVEL2-4 1 63213U 25052D 25353.66143486 .00012588 00000+0 47301-3 0 9996 2 63213 97.4108 245.4430 0004702 48.0549 312.1091 15.27299696 42640 TEVEL2-5 1 63214U 25052E 25353.66723739 .00012195 00000+0 45943-3 0 9996 2 63214 97.4106 245.4353 0004690 48.6434 311.5207 15.27223416 42647 TEVEL2-6 1 63215U 25052F 25353.67475926 .00011743 00000+0 44316-3 0 9991 2 63215 97.4107 245.4309 0004776 47.9549 312.2096 15.27175954 42641 TEVEL2-1 1 63217U 25052H 25354.11215029 .00011868 00000+0 45219-3 0 9990 2 63217 97.4081 245.6701 0005140 55.7172 304.4553 15.26853986 42702 TEVEL2-3 1 63218U 25052J 25354.17677809 .00011888 00000+0 45259-3 0 9991 2 63218 97.4083 245.7401 0005163 55.8382 304.3346 15.26878860 42710 TEVEL2-2 1 63219U 25052K 25353.19539921 .00013194 00000+0 50263-3 0 9998 2 63219 97.4084 244.7608 0005156 58.0109 302.1631 15.26832185 42560 TEVEL2-9 1 63237U 25052AD 25354.14882884 .00010414 00000+0 41525-3 0 9996 2 63237 97.4144 245.4027 0009125 61.6273 298.5884 15.25344883 42674 TEVEL2-7 1 63238U 25052AE 25354.22909262 .00010873 00000+0 43537-3 0 9990 2 63238 97.4149 245.4555 0009251 61.3787 298.8381 15.25192240 42687 TEVEL2-8 1 63239U 25052AF 25354.16924755 .00010985 00000+0 44018-3 0 9997 2 63239 97.4147 245.3801 0009226 61.7894 298.4274 15.25164734 42677 HADES-ICM 1 63492U 25052BN 25351.96064983 .00050303 00000+0 12519-2 0 9999 2 63492 97.4082 245.5345 0011624 61.2981 298.9432 15.40039410 42500 INNOSAT 16 (RS92S7) 1 64878U 25155C 25354.17678731 .00003119 00000+0 13614-3 0 9991 2 64878 97.4341 317.4697 0013079 94.5108 265.7623 15.22814355 53406 GEOSCAN 6 (RS92S6) 1 64879U 25155D 25354.15263127 .00007514 00000+0 29746-3 0 9995 2 64879 97.4343 317.8251 0010773 89.8825 270.3647 15.25675934 53421 GEOSCAN 1 (RS92S1) 1 64880U 25155E 25354.20663887 .00008883 00000+0 34820-3 0 9999 2 64880 97.4344 317.9116 0010703 90.2059 270.0406 15.25951291 53437 239ALFEROV (RS61S) 1 64881U 25155F 25354.16377704 .00010276 00000+0 39152-3 0 9997 2 64881 97.4354 317.9899 0010547 90.1380 270.1067 15.26855838 53434 GEOSCAN 2 (RS92S2) 1 64890U 25155Q 25354.16963718 .00008291 00000+0 32210-3 0 9995 2 64890 97.4342 317.9491 0009955 80.0704 280.1658 15.26279312 53432 GEOSCAN 5 (RS92S5) 1 64891U 25155R 25354.12642116 .00010296 00000+0 38821-3 0 9990 2 64891 97.4345 318.0169 0009207 94.9279 265.3011 15.27210530 53437 GEOSCAN 4 (RS92S4) 1 64892U 25155S 25354.18869531 .00010751 00000+0 40434-3 0 9998 2 64892 97.4347 318.0903 0009238 95.3057 264.9236 15.27283436 53449 GEOSCAN 3 (RS92S3) 1 64893U 25155T 25354.15488470 .00011768 00000+0 43208-3 0 9996 2 64893 97.4343 318.1290 0009104 96.9458 263.2817 15.28054499 53443 INNOSAT 3 (RS92S0) 1 64894U 25155U 25354.18579055 .00019602 00000+0 66211-3 0 9994 2 64894 97.4328 318.3800 0009068 97.5498 262.6773 15.30665768 53462